Yakima, WA
on Sunday, November 18, 2012

Sunday
Previous Day Next Day
Daily Summary
 ActualAverageRecord
Temperature
Mean Temperature °F 36°F  
Max Temperature 51°F 47°F 67°F (2003)
Min Temperature 31°F 26°F 9°F (1955)
Degree Days
Heating Degree Days 24 29  
Month to date heating degree days 392 457  
Since 1 July heating degree days 929 1161  
Cooling Degree Days 0 0  
Month to date cooling degree days 0 0  
Year to date cooling degree days 667 472  
Moisture
Dew Point 34°F   
Average Humidity 74    
Maximum Humidity 92    
Minimum Humidity 56    
Precipitation
Precipitation 0.09 in 0.04 in 0.73 in (2007)
Month to date precipitation 0.48 0.58  
Year to date precipitation 7.01 6.25  
Snow
Snow 0.00 in 0.20 in 4.50 in (1978)
Month to date snowfall 0.8 1.2  
Year to date snowfall 22.3 9.9  
Since 1 July snowfall 0.8 1.3  
Snow Depth 0.00 in   
Wind
Wind Speed 6 mph   
Max Wind Speed 17 mph   
Max Gust Speed 107 mph   
Visibility 8 miles   
Events Rain   

Key: T is trace of precipitation, MM is missing value
Source: NWS Daily Summary
Time(PST)TemperatureDew PointHumidity Pressure Visibility Wind DirectionWind SpeedGust SpeedPrecipitationEvents Conditions
12:00 AM 37.4°F 33.8°F 87% 29.73 in 6.0 miles Calm Calm - N/A   Clear
12:28 AM 35.6°F 32.0°F 87% 29.74 in 2.5 miles West 8.1 mph - N/A   Partly Cloudy
12:32 AM 33.8°F 30.2°F 87% 29.74 in 1.0 miles NW 6.9 mph - N/A   Mist
12:40 AM 33.8°F 30.2°F 87% 29.74 in 0.8 miles NW 5.8 mph - N/A   Mist
12:43 AM 33.8°F 32.0°F 93% 29.74 in 1.2 miles NW 4.6 mph - N/A   Partly Cloudy
12:47 AM 33.8°F 32.0°F 93% 29.74 in 3.0 miles NW 6.9 mph - N/A   Partly Cloudy
12:53 AM 36.0°F 32.0°F 86% 29.76 in 7.0 miles WNW 4.6 mph - N/A   Partly Cloudy
1:53 AM 41.0°F 33.1°F 73% 29.78 in 10.0 miles WNW 4.6 mph 19.6 mph N/A   Clear
2:53 AM 34.0°F 30.9°F 89% 29.81 in 10.0 miles West 4.6 mph - N/A   Clear
3:53 AM 33.1°F 28.9°F 85% 29.82 in 7.0 miles NW 5.8 mph - N/A   Clear
4:53 AM 30.9°F 28.0°F 89% 29.85 in 6.0 miles NNE 4.6 mph - N/A   Clear
5:53 AM 32.0°F 28.4°F 87% 29.83 in 6.0 miles West 6.9 mph - N/A   Clear
6:53 AM 32.0°F 28.9°F 88% 29.86 in 8.0 miles WNW 3.5 mph - N/A   Clear
7:53 AM 35.1°F 30.9°F 85% 29.87 in 10.0 miles Calm Calm - N/A   Clear
8:53 AM 36.0°F 32.0°F 86% 29.88 in 10.0 miles Calm Calm - N/A   Scattered Clouds
9:53 AM 43.0°F 35.1°F 74% 29.87 in 10.0 miles Calm Calm - N/A   Scattered Clouds
10:53 AM 46.0°F 37.0°F 71% 29.87 in 10.0 miles Calm Calm - N/A   Mostly Cloudy
11:53 AM 48.0°F 36.0°F 63% 29.84 in 10.0 miles SE 4.6 mph - N/A   Mostly Cloudy
12:53 PM 51.1°F 37.9°F 61% 29.83 in 10.0 miles South 11.5 mph - N/A   Mostly Cloudy
1:53 PM 50.0°F 36.0°F 59% 29.81 in 10.0 miles SE 8.1 mph - N/A   Scattered Clouds
2:53 PM 50.0°F 35.1°F 57% 29.81 in 10.0 miles Calm Calm - N/A   Scattered Clouds
3:53 PM 48.9°F 35.1°F 59% 29.81 in 10.0 miles SE 9.2 mph - N/A   Overcast
4:53 PM 48.9°F 36.0°F 61% 29.80 in 10.0 miles SSE 8.1 mph - N/A   Overcast
5:53 PM 50.0°F 35.6°F 58% 29.76 in 10.0 miles SSE 13.8 mph - N/A   Overcast
6:53 PM 48.0°F 37.0°F 66% 29.76 in 10.0 miles SSE 11.5 mph 19.6 mph 0.01 in Rain Light Rain
7:53 PM 46.9°F 37.9°F 71% 29.75 in 10.0 miles SSE 10.4 mph - 0.03 in Rain Light Rain
8:53 PM 48.0°F 37.9°F 68% 29.75 in 10.0 miles SSE 11.5 mph 24.2 mph 0.00 in Rain Light Rain
9:53 PM 44.1°F 39.0°F 82% 29.74 in 10.0 miles WNW 6.9 mph - 0.00 in   Overcast
10:53 PM 43.0°F 39.0°F 86% 29.74 in 10.0 miles West 5.8 mph - 0.00 in   Overcast
11:53 PM 43.0°F 39.9°F 89% 29.74 in 5.0 miles WNW 3.5 mph - 0.04 in Rain Light Rain
Moon Phase
Nov. 18 Nov. 20 Nov. 28 Dec. 06 Dec. 13
Sunrise:07:09 AM (PST) Moon Rise:11:35 AM (PST)11/18
Sunset:04:25 PM (PST) Moon Set:09:56 PM (PST)11/18

Copyright © 2014 The Weather Underground, Inc.